SCP
0 0 0 0 0 0 0 0 0 0 0 0 0 0 0 0 0 0 -0 -0 -0 -0 -0 -0 -0 -0 -0 -0 -0 -0 -0 -0
0 0 0 0 0 0 0 0 0 0 0 0 0 -0 -0 -0 0 0 -0 -0 -0 -0 -0 -0 -0 -0 -0 -0 -0 -0 -0 -0
0 0 0 0 0 0 0 0 0 0 0 0 0 0 0 0 0 0 0 0 0 -0 -0 -0 -0 -0 -0 -0 -0 -0 -0 -0
0 0 0 0 0 0 0 0 0 0 0 0 0 0 -0 -0 0 0 0 0 0 0 0 0 -0 -0 -0 -0 -0 -0 -0 -1
0 0 0 0 0 0 0 0 0 0 0 0 0 0 0 0 0 0 0 0 0 0 0 0 -0 -0 -0 -0 -0 -0 -0 -0
0 0 0 0 0 0 0 0 0 0 0 0 0 0 0 0 0 0 0 0 0 0 0 0 0 0 0 -0 0 0 0 0
0 0 0 0 0 0 0 0 0 0 0 0 0 0 0 0 0 0 0 0 0 0 0 0 0 1 0 0 0 0 0 0
0 0 0 0 0 0 0 0 0 0 0 0 0 0 0 0 0 0 0 0 0 0 0 0 0 0 1 1 1 1 0 0
0 0 0 0 0 0 0 0 0 0 0 0 0 0 0 0 0 0 0 0 0 0 0 0 0 1 1 1 1 1 1 1
0 0 0 0 0 0 0 0 0 0 0 0 0 0 0 0 0 0 0 0 0 0 1 1 1 1 1 1 1 1 1 1
0 0 0 0 0 0 0 0 0 0 0 0 0 0 0 0 0 0 0 0 0 0 1 1 1 1 1 1 2 2 1 1
0 0 0 0 0 0 0 0 0 0 0 0 0 0 0 0 0 0 0 0 1 0 1 1 1 1 2 2 3 3 1 1
0 0 0 1 0 0 0 0 0 0 0 0 0 0 0 0 0 1 1 1 1 1 1 2 3 3 5 4 4 4 3 2
0 1 0 0 0 0 1 0 0 0 0 0 0 1 1 1 1 1 1 2 2 3 3 3 5 6 7 6 6 4 2 1
2 1 0 0 1 0 1 0 0 0 0 0 0 0 0 1 2 1 2 2 2 2 4 6 6 6 7 9 4 2 2 2
1 0 0 0 0 0 0 0 0 1 1 1 1 1 1 1 2 2 3 3 3 4 5 6 6 6 5 3 2 2 2 3
0 0 0 0 0 0 0 0 0 0 1 1 2 3 3 3 3 4 5 6 6 5 5 5 5 3 2 1 2 2 2 3
0 0 0 0 0 0 0 0 0 0 0 0 0 1 2 3 4 4 5 5 4 4 3 3 2 2 2 2 3 3 4 4
1 0 0 0 0 0 0 0 0 0 0 0 0 0 0 1 2 3 3 4 4 5 1 1 1 1 2 2 3 3 3 2
Wind_Speed_500mb
49 38 52 56 54 51 46 41 34 35 31 44 28 35 39 39 36 39 52 69 77 76 78 76 75 77 80 79 73 72 73 73
48 43 54 56 46 48 41 49 45 41 42 26 35 39 38 33 33 42 48 56 68 78 83 80 76 75 75 79 77 72 74 77
40 52 50 42 40 51 46 43 37 36 36 31 28 25 24 25 30 33 34 49 60 71 79 83 76 72 73 75 77 73 74 78
49 52 54 51 50 54 36 51 39 42 34 37 40 36 48 50 39 27 28 34 48 60 67 75 80 76 71 70 72 78 76 78
38 38 47 58 53 56 53 43 54 41 38 33 22 23 28 35 34 28 22 26 37 52 65 71 73 78 75 71 70 68 62 68
37 48 41 43 53 58 56 41 43 49 43 46 45 37 38 31 34 39 30 28 35 48 61 65 66 77 84 71 63 59 60 61
50 46 47 49 51 51 57 58 54 48 57 43 46 35 44 49 44 41 28 35 42 50 58 61 63 67 63 61 58 56 56 57
42 47 48 42 51 54 57 56 58 62 61 44 54 69 56 57 52 51 42 41 42 47 54 60 60 59 52 53 53 53 54 56
38 42 45 50 54 54 58 57 56 56 51 48 55 48 59 60 62 55 53 46 41 51 61 57 54 51 51 50 49 50 53 50
29 35 43 40 47 51 55 56 60 56 50 47 57 60 67 71 61 55 52 52 41 41 46 49 49 48 46 45 47 47 49 47
29 31 27 30 26 28 48 55 51 52 46 49 57 44 41 49 49 55 50 49 42 41 46 49 51 49 50 49 47 44 43 42
20 39 36 11 16 18 20 29 48 49 50 48 45 29 32 33 38 41 29 36 36 40 47 48 52 52 53 51 49 45 39 32
35 26 19 12 14 4 13 11 47 56 66 54 42 37 13 13 22 18 19 25 33 39 41 45 49 51 51 47 41 35 33 30
24 26 32 13 9 9 12 31 29 27 30 40 36 25 24 23 29 33 36 40 44 48 45 46 49 48 45 42 41 37 26 20
12 8 13 9 5 4 7 12 23 1 15 26 32 32 38 44 48 46 42 45 45 49 50 46 46 49 45 34 24 27 24 28
19 10 15 25 27 26 33 16 10 23 33 37 41 42 36 43 51 56 51 50 45 47 48 45 37 33 31 30 27 19 23 27
26 23 30 26 32 30 32 28 29 41 42 36 36 34 30 37 37 37 47 45 42 39 43 38 31 29 26 26 30 27 29 27
16 27 31 23 24 17 25 22 26 40 45 41 43 42 38 39 36 30 38 38 36 33 28 33 34 34 33 32 28 30 26 22
14 29 47 35 28 16 13 15 27 41 39 38 37 35 34 35 33 30 29 31 28 32 29 30 32 34 28 33 31 25 27 26
Wind_Direction_500mb
212 211 218 202 218 226 241 224 234 224 216 248 242 260 261 253 232 224 212 213 214 212 210 208 210 212 218 221 225 227 225 226
199 211 220 228 206 220 229 232 227 240 232 222 224 231 238 237 230 227 221 217 216 215 212 209 209 212 216 224 227 227 226 229
206 208 204 209 230 215 231 227 239 227 235 220 240 242 242 245 226 233 232 222 218 215 213 212 209 210 212 218 224 225 227 230
211 215 222 210 215 215 224 222 234 249 242 225 224 232 247 248 255 276 255 233 223 215 210 208 210 209 211 213 215 222 224 228
232 207 220 226 212 223 217 233 227 229 234 241 197 228 259 248 253 262 254 244 220 207 205 204 207 207 209 212 215 217 214 218
215 217 193 213 232 229 226 225 236 241 232 227 225 234 239 240 261 269 263 240 207 200 200 201 204 207 209 212 214 213 214 213
230 244 223 221 210 225 234 240 239 239 241 227 239 232 249 257 258 267 257 227 205 198 200 199 201 205 207 209 210 208 211 212
233 234 241 241 229 230 225 233 240 244 247 242 226 241 243 247 251 252 251 232 212 202 201 201 200 201 200 200 202 201 206 210
238 225 238 239 240 233 234 231 235 237 238 235 243 238 236 241 242 244 246 237 219 212 205 200 196 195 194 193 191 198 204 205
238 230 237 244 242 237 243 236 232 235 241 229 236 231 233 230 237 240 243 243 228 215 208 201 190 188 184 185 191 197 197 202
235 230 237 228 217 258 243 238 240 235 232 234 223 228 250 240 233 235 238 237 226 210 199 189 183 180 181 178 181 185 193 197
202 244 236 52 21 352 327 256 236 234 218 225 229 233 244 225 221 230 232 220 203 189 184 184 176 175 171 170 173 177 181 186
229 229 211 31 342 139 211 289 321 241 235 226 230 237 261 194 191 170 180 174 170 167 171 167 162 162 157 158 162 165 170 178
228 216 226 5 209 236 353 328 311 274 245 236 218 184 159 147 130 125 130 130 136 137 145 146 147 147 145 147 155 162 174 181
241 190 86 74 91 45 36 358 353 113 161 164 163 156 146 138 123 119 121 122 124 125 126 129 137 145 145 143 148 150 178 204
167 126 94 102 86 74 76 76 74 79 101 116 119 119 121 111 112 114 109 104 109 115 121 128 137 143 142 147 166 187 189 174
102 127 110 81 76 79 85 80 84 89 91 93 93 91 93 91 91 96 100 102 103 106 116 121 128 134 140 153 160 158 156 159
163 149 118 94 70 57 72 80 71 75 72 68 72 73 71 70 73 76 98 106 114 118 128 137 141 153 153 141 138 133 128 141
116 123 106 104 91 60 67 86 89 83 78 74 68 65 66 64 64 66 76 94 108 115 139 143 146 141 139 148 151 136 140 146
Wind_Speed_850mb
49 38 52 56 54 51 46 41 34 35 31 44 28 35 39 39 36 39 52 69 77 76 78 76 75 77 80 79 73 72 73 73
48 43 54 56 46 48 41 49 45 41 42 26 35 39 38 33 33 42 48 56 68 78 83 80 76 75 75 79 77 72 74 77
40 52 50 42 40 51 46 43 37 36 36 31 28 25 24 25 30 33 34 49 60 71 79 83 76 72 73 75 77 73 74 78
49 52 54 51 50 54 36 51 39 42 34 37 40 36 48 50 39 27 28 34 48 60 67 75 80 76 71 70 72 78 76 78
38 38 47 58 53 56 53 43 54 41 38 33 22 23 28 35 34 28 22 26 37 52 65 71 73 78 75 71 70 68 62 68
37 48 41 43 53 58 56 41 43 49 43 46 45 37 38 31 34 39 30 28 35 48 61 65 66 77 84 71 63 59 60 61
50 46 47 49 51 51 57 58 54 48 57 43 46 35 44 49 44 41 28 35 42 50 58 61 63 67 63 61 58 56 56 57
42 47 48 42 51 54 57 56 58 62 61 44 54 69 56 57 52 51 42 41 42 47 54 60 60 59 52 53 53 53 54 56
38 42 45 50 54 54 58 57 56 56 51 48 55 48 59 60 62 55 53 46 41 51 61 57 54 51 51 50 49 50 53 50
29 35 43 40 47 51 55 56 60 56 50 47 57 60 67 71 61 55 52 52 41 41 46 49 49 48 46 45 47 47 49 47
29 31 27 30 26 28 48 55 51 52 46 49 57 44 41 49 49 55 50 49 42 41 46 49 51 49 50 49 47 44 43 42
20 39 36 11 16 18 20 29 48 49 50 48 45 29 32 33 38 41 29 36 36 40 47 48 52 52 53 51 49 45 39 32
35 26 19 12 14 4 13 11 47 56 66 54 42 37 13 13 22 18 19 25 33 39 41 45 49 51 51 47 41 35 33 30
24 26 32 13 9 9 12 31 29 27 30 40 36 25 24 23 29 33 36 40 44 48 45 46 49 48 45 42 41 37 26 20
12 8 13 9 5 4 7 12 23 1 15 26 32 32 38 44 48 46 42 45 45 49 50 46 46 49 45 34 24 27 24 28
19 10 15 25 27 26 33 16 10 23 33 37 41 42 36 43 51 56 51 50 45 47 48 45 37 33 31 30 27 19 23 27
26 23 30 26 32 30 32 28 29 41 42 36 36 34 30 37 37 37 47 45 42 39 43 38 31 29 26 26 30 27 29 27
16 27 31 23 24 17 25 22 26 40 45 41 43 42 38 39 36 30 38 38 36 33 28 33 34 34 33 32 28 30 26 22
14 29 47 35 28 16 13 15 27 41 39 38 37 35 34 35 33 30 29 31 28 32 29 30 32 34 28 33 31 25 27 26
Wind_Direction_850mb
212 211 218 202 218 226 241 224 234 224 216 248 242 260 261 253 232 224 212 213 214 212 210 208 210 212 218 221 225 227 225 226
199 211 220 228 206 220 229 232 227 240 232 222 224 231 238 237 230 227 221 217 216 215 212 209 209 212 216 224 227 227 226 229
206 208 204 209 230 215 231 227 239 227 235 220 240 242 242 245 226 233 232 222 218 215 213 212 209 210 212 218 224 225 227 230
211 215 222 210 215 215 224 222 234 249 242 225 224 232 247 248 255 276 255 233 223 215 210 208 210 209 211 213 215 222 224 228
232 207 220 226 212 223 217 233 227 229 234 241 197 228 259 248 253 262 254 244 220 207 205 204 207 207 209 212 215 217 214 218
215 217 193 213 232 229 226 225 236 241 232 227 225 234 239 240 261 269 263 240 207 200 200 201 204 207 209 212 214 213 214 213
230 244 223 221 210 225 234 240 239 239 241 227 239 232 249 257 258 267 257 227 205 198 200 199 201 205 207 209 210 208 211 212
233 234 241 241 229 230 225 233 240 244 247 242 226 241 243 247 251 252 251 232 212 202 201 201 200 201 200 200 202 201 206 210
238 225 238 239 240 233 234 231 235 237 238 235 243 238 236 241 242 244 246 237 219 212 205 200 196 195 194 193 191 198 204 205
238 230 237 244 242 237 243 236 232 235 241 229 236 231 233 230 237 240 243 243 228 215 208 201 190 188 184 185 191 197 197 202
235 230 237 228 217 258 243 238 240 235 232 234 223 228 250 240 233 235 238 237 226 210 199 189 183 180 181 178 181 185 193 197
202 244 236 52 21 352 327 256 236 234 218 225 229 233 244 225 221 230 232 220 203 189 184 184 176 175 171 170 173 177 181 186
229 229 211 31 342 139 211 289 321 241 235 226 230 237 261 194 191 170 180 174 170 167 171 167 162 162 157 158 162 165 170 178
228 216 226 5 209 236 353 328 311 274 245 236 218 184 159 147 130 125 130 130 136 137 145 146 147 147 145 147 155 162 174 181
241 190 86 74 91 45 36 358 353 113 161 164 163 156 146 138 123 119 121 122 124 125 126 129 137 145 145 143 148 150 178 204
167 126 94 102 86 74 76 76 74 79 101 116 119 119 121 111 112 114 109 104 109 115 121 128 137 143 142 147 166 187 189 174
102 127 110 81 76 79 85 80 84 89 91 93 93 91 93 91 91 96 100 102 103 106 116 121 128 134 140 153 160 158 156 159
163 149 118 94 70 57 72 80 71 75 72 68 72 73 71 70 73 76 98 106 114 118 128 137 141 153 153 141 138 133 128 141
116 123 106 104 91 60 67 86 89 83 78 74 68 65 66 64 64 66 76 94 108 115 139 143 146 141 139 148 151 136 140 146